(19243) Bunting = 1998 EQ3 = 1994 CD9 = 1989 UG8 = 1989 TE11

Discovered at Palomar on 1994-02-10 by C. S. Shoemaker and E. M. Shoemaker.
(19243) Bunting = 1994 CD9

Born in Scotland, John Bunting has had experience in geologic field mapping and mineral exploration for more than 30 years, much of it in the remote areas of Western Australia He noted anomalous geologic effects in several places, including the shatter cones at the Shoemaker structure and at Yarrabubba with Francis MacDonald. [Ref: Minor Planet Circ. 48395]

Orbit

Orbit type: Phocaea

Note: WebGL enabled browser required.

epoch2024-03-31.0
epoch JD2460400.5
perihelion date2022-02-27.18456
perihelion JD2459637.68457
argument of perihelion (°)59.71537
ascending node (°)5.97245
inclination (°)23.73815
eccentricity0.2429421
perihelion distance (AU)1.7646648
Tisserand w.r.t. Jupiter3.4
ΔV w.r.t. Earth (km/sec)10.9
semimajor axis (AU)2.3309508
mean anomaly (°)211.26321
mean daily motion (°/day)0.27695190
aphelion distance (AU)2.897
period (years)3.56
P-vector [x]0.41930993
P-vector [y]0.63117362
P-vector [z]0.65253279
Q-vector [x]-0.90687636
Q-vector [y]0.25804994
Q-vector [z]0.33314486
absolute magnitude13.36
phase slope0.15
uncertainty0
referenceE2024-GJ9
observations used2782
oppositions20
arc length (days)12609
first opposition used1989
last opposition used2024
residual rms (arc-secs)0.52
perturbers coarse indicatorM-v
perturbers precise indicator003Ek
first observation date used1989-10-05.0
last observation date used2024-04-13.0
computer nameMPCLINUX
JD of orbit computation2456966.744670
perihelion JD uncertainty (days)4.1933E-05
argument of perihelion uncertainty (°)1.5970E-05
ascending node uncertainty (°)8.4778E-06
inclination uncertainty (°)6.1187E-06
eccentricity uncertainty 4.0671E-08
perihelion distance uncertainty (AU)9.6976E-08
Minimum Orbit Intersection Distances (in AU)
for orbit epoch: 2460400.5, reference: E2024-GJ9
Mercury1.47379
Venus1.11211
Earth0.86181
Mars0.49089
Jupiter2.79203
Saturn7.05693
Uranus15.9238
Neptune27.8206

Observations

2807 total observations over interval: 1989 10 05.58890 – 2024 03 19.409861
These data are available for download (format description).

Date (UT) J2000 RA J2000 Dec Magn Location Ref
1989 10 05.58890 00 00 11.87 +00 04 14.8 15   327 – Peking Observatory, Xinglong Station MPC 15856
1989 10 05.74446 23 59 56.53 +00 05 46.2   327 – Peking Observatory, Xinglong Station MPC 15856
1989 10 21.77043 23 37 07.06 +02 52 37.2 16.5 V 095 – Crimea-Nauchnyi MPC 16784
1989 10 25.78396 23 32 46.46 +03 36 15.1 16.2 V 095 – Crimea-Nauchnyi MPC 16784
1989 10 29.76499 23 29 10.08 +04 19 53.2 16.2 V 095 – Crimea-Nauchnyi MPC 16784
1994 02 10.34565 09 29 39.64 +52 39 02.4 16.5   675 – Palomar Mountain MPC 23394
1994 02 10.38107 09 29 35.23 +52 38 40.2   675 – Palomar Mountain MPC 23394
1994 02 13.35555 09 23 52.23 +52 06 27.0   675 – Palomar Mountain MPC 23394
1994 02 13.39201 09 23 47.97 +52 06 01.1   675 – Palomar Mountain MPC 23394
1994 02 15.17204 09 20 33.42 +51 44 26.4   675 – Palomar Mountain MPC 23394
1994 02 15.21510 09 20 28.62 +51 43 54.5   675 – Palomar Mountain MPC 23394
1996 12 04.07526 22 46 36.21 -04 20 17.9 18.0 V 691 – Steward Observatory, Kitt Peak-Spacewatch MPS 80807
1996 12 04.09127 22 46 37.10 -04 20 01.7 17.2 V 691 – Steward Observatory, Kitt Peak-Spacewatch MPS 80807
1996 12 04.10622 22 46 37.97 -04 19 46.9 17.5 V 691 – Steward Observatory, Kitt Peak-Spacewatch MPS 80807
1998 03 02.99541 13 10 13.52 -06 35 03.0 18.3 V 910 – Caussols-ODAS MPS 587
1998 03 03.01087 13 10 12.65 -06 35 06.5 18.3 V 910 – Caussols-ODAS MPS 587
1998 03 03.02656 13 10 11.75 -06 35 09.7 18.2 V 910 – Caussols-ODAS MPS 587
1998 03 03.96503 13 09 19.45 -06 38 31.5 17.7 V 910 – Caussols-ODAS MPS 587
1998 03 03.99099 13 09 17.97 -06 38 37.0 17.7 V 910 – Caussols-ODAS MPS 587
1998 03 04.01487 13 09 16.57 -06 38 42.1 17.7 V 910 – Caussols-ODAS MPS 587
1998 03 08.35230 13 04 55.17 -06 53 00.4 17.0 R 699 – Lowell Observatory-LONEOS MPS 895
1998 03 08.36040 13 04 54.63 -06 53 01.3 16.8 R 699 – Lowell Observatory-LONEOS MPS 895
1998 03 08.36849 13 04 54.07 -06 53 02.7 17.2 R 699 – Lowell Observatory-LONEOS MPS 895
1998 03 20.22962 12 50 49.06 -07 22 11.1   704 – Lincoln Laboratory ETS, New Mexico MPS 649
1998 03 20.24974 12 50 47.50 -07 22 12.5 17.8   704 – Lincoln Laboratory ETS, New Mexico MPS 649
1998 03 20.26983 12 50 45.88 -07 22 15.8 17.8   704 – Lincoln Laboratory ETS, New Mexico MPS 649
1998 03 20.29005 12 50 44.25 -07 22 17.6   704 – Lincoln Laboratory ETS, New Mexico MPS 649
1998 03 20.31011 12 50 42.72 -07 22 19.9 17.9   704 – Lincoln Laboratory ETS, New Mexico MPS 649
1998 03 22.24457 12 48 11.83 -07 25 46.5   704 – Lincoln Laboratory ETS, New Mexico MPS 649
1998 03 22.26467 12 48 10.20 -07 25 48.7   704 – Lincoln Laboratory ETS, New Mexico MPS 649
1998 03 22.28497 12 48 08.55 -07 25 51.2   704 – Lincoln Laboratory ETS, New Mexico MPS 649
1998 03 22.30506 12 48 06.89 -07 25 54.4 18.0   704 – Lincoln Laboratory ETS, New Mexico MPS 649
1998 03 22.32517 12 48 05.27 -07 25 55.3   704 – Lincoln Laboratory ETS, New Mexico MPS 649
1998 03 28.31099 12 40 07.10 -07 34 36.9 17.4   704 – Lincoln Laboratory ETS, New Mexico MPS 1214
1998 03 28.33218 12 40 05.30 -07 34 37.7   704 – Lincoln Laboratory ETS, New Mexico MPS 1214
1998 03 28.35313 12 40 03.63 -07 34 39.9 17.6   704 – Lincoln Laboratory ETS, New Mexico MPS 1214
1998 03 28.37404 12 40 01.90 -07 34 40.5 17.7   704 – Lincoln Laboratory ETS, New Mexico MPS 1214
1998 03 28.39499 12 40 00.05 -07 34 36.5 19.7   704 – Lincoln Laboratory ETS, New Mexico MPS 1214
1998 03 29.28169 12 38 48.94 -07 35 46.0 17.9   704 – Lincoln Laboratory ETS, New Mexico MPS 1214
1998 03 29.30210 12 38 47.24 -07 35 49.2   704 – Lincoln Laboratory ETS, New Mexico MPS 1214
1998 03 29.32221 12 38 45.57 -07 35 49.6 18.2   704 – Lincoln Laboratory ETS, New Mexico MPS 1214
1998 03 29.34257 12 38 43.94 -07 35 51.5   704 – Lincoln Laboratory ETS, New Mexico MPS 1214
1998 03 29.36283 12 38 42.26 -07 35 54.0   704 – Lincoln Laboratory ETS, New Mexico MPS 1214
1998 04 01.23354 12 34 51.84 -07 38 56.6 17.9   704 – Lincoln Laboratory ETS, New Mexico MPS 649
1998 04 01.25363 12 34 50.17 -07 38 58.8   704 – Lincoln Laboratory ETS, New Mexico MPS 649
1998 04 01.27364 12 34 48.54 -07 39 00.0   704 – Lincoln Laboratory ETS, New Mexico MPS 649
1998 04 01.29389 12 34 46.83 -07 39 00.7   704 – Lincoln Laboratory ETS, New Mexico MPS 649
1998 04 01.31393 12 34 45.25 -07 39 02.2 17.9   704 – Lincoln Laboratory ETS, New Mexico MPS 649
1998 04 18.25622 12 13 55.40 -07 51 54.1 18.3   704 – Lincoln Laboratory ETS, New Mexico MPS 895
1998 04 18.27711 12 13 54.07 -07 51 53.9 18.5   704 – Lincoln Laboratory ETS, New Mexico MPS 895
1998 04 18.29789 12 13 52.62 -07 51 55.4 18.5   704 – Lincoln Laboratory ETS, New Mexico MPS 895
1998 04 18.31861 12 13 51.26 -07 51 55.9   704 – Lincoln Laboratory ETS, New Mexico MPS 895
1998 04 19.23502 12 12 53.10 -07 52 36.8   704 – Lincoln Laboratory ETS, New Mexico MPS 895
1998 04 19.25691 12 12 51.83 -07 52 36.5 18.6   704 – Lincoln Laboratory ETS, New Mexico MPS 895
1998 04 19.27853 12 12 50.29 -07 52 36.4 18.9   704 – Lincoln Laboratory ETS, New Mexico MPS 895
1998 04 19.30010 12 12 48.90 -07 52 40.4 18.6   704 – Lincoln Laboratory ETS, New Mexico MPS 895
1998 04 19.32149 12 12 47.54 -07 52 41.4   704 – Lincoln Laboratory ETS, New Mexico MPS 895
1998 04 20.13991 12 11 56.89 -07 53 17.0 18.0   704 – Lincoln Laboratory ETS, New Mexico MPS 895
1998 04 20.16007 12 11 55.61 -07 53 18.2 18.8   704 – Lincoln Laboratory ETS, New Mexico MPS 895
1998 04 20.18035 12 11 54.29 -07 53 19.6   704 – Lincoln Laboratory ETS, New Mexico MPS 895
1998 04 20.20107 12 11 52.99 -07 53 19.9   704 – Lincoln Laboratory ETS, New Mexico MPS 895
1998 04 20.22140 12 11 51.68 -07 53 21.7 18.3   704 – Lincoln Laboratory ETS, New Mexico MPS 895
1998 05 11.30748 11 56 31.96 -08 20 19.8 17.0 V 566 – Haleakala-NEAT/GEODSS MPS 1214
1998 05 11.32826 11 56 31.35 -08 20 22.6 17.0 V 566 – Haleakala-NEAT/GEODSS MPS 1214
1998 05 11.34837 11 56 30.82 -08 20 24.8 17.4 V 566 – Haleakala-NEAT/GEODSS MPS 1214
1999 07 27.11931 17 47 56.789 -57 43 19.28 16.51 J I02 – Cerro Tololo Observatory, La Serena--2MASS MPS 80807
2000 09 18.42806 05 24 57.92 +43 30 02.1 17.3   704 – Lincoln Laboratory ETS, New Mexico MPS 18877
2000 09 18.44250 05 24 59.95 +43 30 19.6 17.0   704 – Lincoln Laboratory ETS, New Mexico MPS 18877
2000 09 18.45694 05 25 01.97 +43 30 36.3 16.8   704 – Lincoln Laboratory ETS, New Mexico MPS 18877
2000 09 18.47143 05 25 03.99 +43 30 53.6 17.1   704 – Lincoln Laboratory ETS, New Mexico MPS 18877
2000 10 07.42462 06 09 34.14 +49 43 02.6 16.8   704 – Lincoln Laboratory ETS, New Mexico MPS 18877
2000 10 07.44011 06 09 36.29 +49 43 20.8 16.7   704 – Lincoln Laboratory ETS, New Mexico MPS 18877
2000 10 07.45608 06 09 38.41 +49 43 39.4 17.1   704 – Lincoln Laboratory ETS, New Mexico MPS 18877
2000 10 07.47130 06 09 40.67 +49 43 56.4 17.5   704 – Lincoln Laboratory ETS, New Mexico MPS 18877
2000 10 07.48662 06 09 42.56 +49 44 15.3 16.9   704 – Lincoln Laboratory ETS, New Mexico MPS 18877
2000 11 09.34969 07 14 59.42 +60 25 46.4 16.3   704 – Lincoln Laboratory ETS, New Mexico MPS 22066
2000 11 09.36361 07 15 00.62 +60 26 02.1 16.8   704 – Lincoln Laboratory ETS, New Mexico MPS 22066
2000 11 09.37752 07 15 01.82 +60 26 17.9 17.6   704 – Lincoln Laboratory ETS, New Mexico MPS 22066
2000 11 09.39146 07 15 02.95 +60 26 33.8 16.4   704 – Lincoln Laboratory ETS, New Mexico MPS 22066
2000 11 09.40538 07 15 04.04 +60 26 49.5 16.3   704 – Lincoln Laboratory ETS, New Mexico MPS 22066
2000 11 10.24630 07 16 15.53 +60 42 40.4 16.7   704 – Lincoln Laboratory ETS, New Mexico MPS 22066
2000 11 10.24740 07 16 15.57 +60 42 42.0 16.4   704 – Lincoln Laboratory ETS, New Mexico MPS 22066
2000 11 10.24752 07 16 15.57 +60 42 42.0 16.1   704 – Lincoln Laboratory ETS, New Mexico MPS 22066
